Regional Weather Roundup
Issued by NWS Portland, ME

Home | Current Version | Previous Version | Text Only | Print | Product List | Glossary On
Versions: 1 2 3 4 5 6 7 8 9 10 11 12 13 14 15 16 17 18 19 20 21 22 23 24 25 26 27 28 29 30 31 32 33 34 35 36 37 38 39 40 41 42 43 44 45 46 47 48 49 50
000
ASUS41 KGYX 290010
RWRGYX
WEATHER ROUNDUP FOR MAINE AND NEW HAMPSHIRE
NATIONAL WEATHER SERVICE GRAY ME
800 PM EDT SAT MAY 28 2016

MEZ002-005-006-010-012-015-018-020-021-024-026-027-029-290100-
MAINE

CITY           SKY/WX    TMP DP  RH WIND       PRES   REMARKS
PORTLAND       CLOUDY    70  63  78 E12       30.09R
6HR MIN TEMP:  70; 6HR MAX TEMP:  85;

SANFORD        PTCLDY    73  63  68 CALM      30.08S
BAR HARBOR     PTCLDY    64  56  75 SE6       30.16R
WISCASSET      MOCLDY    69  60  73 E6        30.12R
6HR MIN TEMP:  69; 6HR MAX TEMP:  86;

ROCKLAND       CLOUDY    58  53  84 E5        30.15R
FRYEBURG       CLOUDY    81  69  67 CALM      30.09R
6HR MIN TEMP:  81; 6HR MAX TEMP:  92;

LEWISTONAUBURN CLOUDY   N/A N/A N/A SE6       30.09R
AUGUSTA        PTCLDY    74  62  66 E8        30.12R
6HR MIN TEMP:  74; 6HR MAX TEMP:  90;

WATERVILLE     CLOUDY    77  65  66 VRB3      30.10R
BANGOR         MOCLDY    77  59  53 NE9       30.14R
6HR MIN TEMP:  77; 6HR MAX TEMP:  88;

GREENVILLE       N/A     66  51  58 CALM      30.15R
6HR MIN TEMP:  66; 6HR MAX TEMP:  77;

MILLINOCKET    PTCLDY    67  51  56 N13       30.17S
6HR MIN TEMP:  67; 6HR MAX TEMP:  76;

HOULTON        PTCLDY    62  50  64 N5        30.19R
6HR MIN TEMP:  62; 6HR MAX TEMP:  70;

PRESQUE ISLE   CLOUDY    61  47  59 NW6       30.21
6HR MIN TEMP:  61; 6HR MAX TEMP:  66;

FRENCHVILLE    CLOUDY    57  43  59 N7        30.21R
6HR MIN TEMP:  57; 6HR MAX TEMP:  64;

CARIBOU        CLOUDY    61  48  62 N5        30.19S
6HR MIN TEMP:  61; 6HR MAX TEMP:  68;

$$

NHZ002-005-008-009-011-012-014-290100-
NEW HAMPSHIRE

CITY           SKY/WX    TMP DP  RH WIND       PRES   REMARKS
PORTSMOUTH     MOCLDY    70  61  73 E7        30.04R
ROCHESTER      CLOUDY    77  64  64 CALM      30.06R
6HR MIN TEMP:  77; 6HR MAX TEMP:  93;

NASHUA         PTCLDY    85  67  54 CALM      30.05
MANCHESTER     MOCLDY    89  62  40 CALM      30.03S
6HR MIN TEMP:  88; 6HR MAX TEMP:  94; 6HR PCP: TRACE;

CONCORD        PTCLDY    85  61  44 NE7       30.05R
6HR MIN TEMP:  85; 6HR MAX TEMP:  94;

LACONIA        PTCLDY    82  67  60 CALM      30.08R
PLYMOUTH       FAIR      78  67  68 CALM      30.07R
BERLIN         CLEAR     79  55  43 NE6       30.13R
6HR MIN TEMP:  78; 6HR MAX TEMP:  90;

WHITEFIELD     CLEAR     76  62  62 CALM      30.11R
6HR MIN TEMP:  76; 6HR MAX TEMP:  88;

JAFFREY        CLEAR     80  63  55 CALM      30.11R
6HR MIN TEMP:  80; 6HR MAX TEMP:  90;

KEENE          CLEAR    N/A N/A N/A CALM      30.07S
LEBANON        PTCLDY    78  67  68 CALM      30.07R
6HR MIN TEMP:  78; 6HR MAX TEMP:  94;

MT WASHINGTON  PTCLDY    57  50  77 W9          N/A
6HR MIN TEMP:  57; 6HR MAX TEMP:  62;

$$

VTZ005-007-008-290100-
VERMONT

CITY           SKY/WX    TMP DP  RH WIND       PRES   REMARKS
ST JOHNSBURY     N/A     81  58  45 MISG      30.08R
MONTPELIER     FAIR      78  61  55 CALM      30.15R
BURLINGTON     MOCLDY    83  58  42 N5        30.07R
$$

MAZ007-012-024-CTZ003-RIZ002-NYZ038-NYZ072-290100-
SOUTHERN NEW ENGLAND AND NY

CITY           SKY/WX    TMP DP  RH WIND       PRES   REMARKS
BOSTON         MOCLDY    84  66  54 SW10      30.04R
WORCESTER      CLEAR     80  65  59 SW12      30.11R
NANTUCKET      CLEAR     61  56  83 SW8       30.13S
PROVIDENCE     MOCLDY    80  65  59 SW9       30.09R
HARTFORD       MOCLDY    84  67  56 S15       30.06R
ALBANY         MOCLDY    88  59  37 CALM      30.05R
NEW YORK CITY  MOCLDY    82  69  64 S5        30.08R
$$

ANZ081-ANZ082-ANZ150-NHZ014-MEZ023>029-290100-
COASTAL MARINE OBSERVATIONS

STATION/POSITION TIME  TEMP    WIND        PRES    WAVE
                       AIR SEA DIR/SP/G            HT/PER
                 (UTC) (F)     (DEG/KT/KT) (MB)    (FT/S)
MOUNT DESERT ROC 0000   53      10/  2/  2 1021.3R
MATINICUS ROCK   2300   56      90/ 12/ 13 1019.7R
ISLE OF SHOALS   2300   69     150/ 18/ 18 1017.0R
JEFFREYS LEDGE   2308      57                N/A     2/ 5
CASHES LEDGE BUO 2350   56 53   70/ 10/ 12 1019.2R   2/ 5
GEORGES BANK BUO 2350   56 53              1021.1R   3/ 4
$$

.............KEY..............
   WCI - WIND CHILL
   TC  - TEMPERATURE IN CELSIUS
   VSB - VISIBILITY IN MILES
   HX  - HEAT INDEX
   FAIR- INDICATES FEW OR NO CLOUDS BELOW 12,000 FT, WITH NO
         SIGNIFICANT WEATHER AND/OR OBSTRUCTIONS TO VISIBILITY.






USA.gov is the U.S. government's official web portal to all federal, state and local government web resources and services.